Location: Cortos
(40.7190°N, 4.5893°W)
Time: 17:18:54
(UTC+00:00)

Daily predictions for brighter satellites

Satellite Brightness Start Highest point End
(mag) Time Altitude Azimuth Time Altitude Azimuth Time Altitude Azimuth
Cosmos 2285 Rocket 4.5 20:19:38 10° NNW 20:25:52 65° WSW 20:32:03 10° S
Cosmos 1356 Rocket 3.8 20:22:34 10° NNW 20:26:49 69° W 20:30:58 10° S
Cosmos 1602 Rocket 3.9 20:23:11 10° SSE 20:27:24 48° E 20:31:41 10° NNE
CZ-2C R/B 3.8 20:23:24 10° NNE 20:28:11 76° ESE 20:32:57 10° S
Atlas Centaur 2 3.2 20:27:18 10° SW 20:32:06 30° S 20:37:55 10° ESE
Cosmos 2263 Rocket 2.6 20:27:29 10° NNW 20:33:00 64° WSW 20:38:28 10° S
Cosmos 2219 Rocket 3.7 20:31:44 10° SE 20:35:09 17° E 20:38:33 10° ENE
Cosmos 2360 Rocket 2.4 20:31:11 10° S 20:36:38 52° ESE 20:42:06 10° NNE
Cosmos 1626 4.4 20:33:42 10° SW 20:36:54 28° WNW 20:40:08 10° NNW
FALCON 9 R/B 2.5 20:38:17 10° WSW 20:39:49 14° SSW 20:41:08 10° SSE
Meteor 2-1 Rocket 4.4 20:34:13 10° N 20:40:00 63° ENE 20:45:51 10° SSE
IRIS 4.1 20:36:26 10° WSW 20:40:07 64° SSE 20:42:40 10° E
Meteor 2-16 Rocket 4.4 20:34:15 10° S 20:40:18 80° E 20:46:24 10° N
Cosmos 2333 Rocket 3.4 20:40:30 10° SSE 20:44:47 23° E 20:49:06 10° NE
Resurs 01 Rocket 1.6 20:46:11 10° SSE 20:50:36 78° ENE 20:55:00 10° N
Cosmos 1818 3.5 20:46:18 10° SSW 20:51:41 74° ESE 20:57:08 10° NE
SL-16 R/B 3.4 20:50:04 10° SW 20:55:30 48° WNW 21:01:01 10° NNE
Cosmos-2242 4.0 20:52:19 10° NNE 20:56:11 31° ENE 20:59:05 15° SE
CZ-2C R/B 3.6 20:51:06 10° N 20:56:19 50° WNW 21:01:23 10° SW
ERS-1 Rocket 4.3 20:56:51 13° ESE 21:00:21 26° ENE 21:04:27 10° NNE
GEOS 3 Rocket 3.7 21:01:08 10° NE 21:06:32 67° ESE 21:11:51 10° SSW
ATLAS 5 CENTAUR R/B 1.4 21:04:26 10° SW 21:08:29 86° WNW 21:12:59 10° NE
Cosmos 2278 Rocket 4.3 21:05:57 10° NNE 21:08:39 13° NE 21:11:20 10° ENE
USA 215 3.4 21:03:46 10° NE 21:10:09 52° SE 21:16:28 10° SSW
USA 245 3.4 21:08:35 21° SE 21:10:27 47° ENE 21:14:14 10° N
Cosmos 1758 Rocket 3.5 21:08:23 10° S 21:12:52 74° E 21:17:22 10° NNE
Cosmos 1844 Rocket 2.9 21:08:50 10° NNW 21:14:21 59° ENE 21:18:16 19° SE
Cosmos 1400 Rocket 3.2 21:11:40 10° N 21:15:31 46° ENE 21:17:42 22° SE
SPOT 5 4.0 21:13:56 17° ESE 21:16:57 31° ENE 21:21:11 10° N
Meteor 2-10 Rocket 3.7 21:13:36 10° NNW 21:18:44 75° W 21:23:40 12° S
Spot 2 Rocket 3.5 21:16:44 17° SSE 21:20:39 74° ENE 21:25:46 10° N
OAO 3 Rocket 3.9 21:16:52 10° WSW 21:21:25 38° S 21:23:58 22° SE
Landsat 7 3.8 21:21:48 19° SSE 21:25:11 75° ENE 21:29:56 10° N
BREEZE M DEB (TANK) 3.6 21:24:13 10° NW 21:26:32 25° NNE 21:27:39 16° ENE
Cosmos 1745 Rocket 4.5 21:24:06 10° SSW 21:30:12 62° W 21:36:25 10° N
Cosmos 2181 Rocket 4.5 21:24:31 10° N 21:30:35 46° ENE 21:34:15 23° SE
SPOT 1/Viking Rocket 3.5 21:31:53 22° SSE 21:35:15 77° ENE 21:40:25 10° N
Cosmos 1953 Rocket 3.4 21:33:11 21° S 21:36:00 70° E 21:40:18 10° NNE
Cosmos 1328 4.2 21:37:17 13° SSW 21:40:48 63° W 21:44:45 10° N
SAR-Lupe-2 3.6 21:42:13 10° N 21:45:50 80° WNW 21:47:57 23° SSW
OAO 2 Rocket 3.7 21:41:07 10° WSW 21:46:10 45° S 21:48:29 28° ESE
Cosmos 1455 3.7 21:45:26 10° NNW 21:48:55 34° W 21:51:42 14° SSW
Cosmos 1825 Rocket 4.4 21:47:25 10° SSW 21:51:43 50° W 21:56:04 10° N
ATLAS CENTAUR R/B 2.2 21:54:10 10° NNW 21:57:30 31° NE 21:58:26 27° E
Cosmos 1980 4.5 21:56:55 29° ESE 21:57:54 31° ESE 22:02:47 10° NE
Alouette 2 Rocket 4.1 21:56:59 10° NNW 22:00:56 60° W 22:03:55 24° S
COSMOS 2428 2.6 21:57:26 13° SSW 22:02:37 84° ESE 22:08:19 10° NNE
Delta 2 Rocket 4.4 22:03:19 10° WSW 22:05:02 23° SW 22:05:02 23° SW
Cosmos 2322 4.4 22:00:58 10° SW 22:06:34 55° WNW 22:12:11 10° NNE
Cosmos 1844 4.0 22:02:59 10° NNW 22:08:41 62° WSW 22:11:25 30° S
Cosmos 1869 4.0 22:05:16 10° N 22:08:59 37° ENE 22:09:22 36° E
NOSS 0 Rocket 4.1 22:07:31 32° SSE 22:10:03 50° ESE 22:15:59 10° NE
CARTOSAT-1 3.7 22:10:04 37° S 22:11:37 66° WSW 22:15:56 10° NNW
Terra 1.8 22:10:34 42° SSE 22:12:09 75° ENE 22:16:54 10° N
Meteor 1-27 4.2 22:09:48 10° N 22:15:34 88° E 22:18:05 36° S
Cosmos 2237 Rocket 2.6 22:14:58 37° SE 22:16:05 41° ESE 22:21:23 10° NE
BREEZE-M DEB (TANK) 3.8 22:14:43 10° WNW 22:17:59 40° SW 22:18:37 37° SSW
Cosmos 2344 4.0 22:16:02 31° SSE 22:18:22 39° ESE 22:25:18 10° NE
Cosmos 2219 Rocket 2.5 22:12:55 10° SSW 22:18:27 65° WNW 22:24:03 10° NNE
Cosmos 1538 Rocket 4.3 22:15:17 15° SSW 22:19:45 67° WNW 22:25:04 10° NNE
Atlas Centaur 2 3.3 22:15:09 10° WSW 22:20:43 33° S 22:21:21 32° S
Cosmos 2360 Rocket 4.5 22:16:26 10° WSW 22:20:56 24° NW 22:25:28 10° N
NOSS 3-3 (A) 4.2 22:15:22 10° SW 22:21:06 68° NW 22:27:35 10° NNE
NOSS 3-3 (C) 4.2 22:15:27 10° SW 22:21:12 69° NW 22:27:42 10° NNE
BREEZE-M R/B 4.0 22:10:57 10° WNW 22:21:23 88° NNE 22:23:36 38° ESE
DELTA 2 R/B (1) 3.5 22:21:05 10° WSW 22:26:31 57° SSE 22:30:03 22° E
Cosmos 2333 Rocket 3.0 22:23:08 10° SW 22:28:38 50° WNW 22:34:12 10° NNE
Cosmos 1315 Rocket 3.0 22:25:07 10° NNW 22:29:12 65° W 22:29:55 53° SSW
Cosmos 2184 Rocket 3.9 22:27:11 36° S 22:29:56 81° E 22:36:15 10° N
Thor Agena Rocket 4.1 22:28:21 10° NNE 22:33:05 37° E 22:33:18 37° ESE
Meteor 2-2 Rocket 4.2 22:28:23 10° N 22:34:12 74° E 22:35:55 46° SSE
Cosmos 2221 2.4 22:34:28 10° N 22:38:52 88° E 22:39:20 71° SSE
ERS-1 Rocket 4.0 22:36:52 26° SW 22:38:55 37° W 22:43:37 10° NNW
BREEZE-M DEB (TANK) 4.3 22:35:31 10° WNW 22:39:16 22° N 22:41:21 11° NE
Cosmos 1892 2.7 22:41:59 68° NE 22:41:59 68° NE 22:45:26 10° N
ATLAS 2AS CENTAUR R/B 3.6 22:35:18 10° NNW 22:42:27 43° NE 22:46:25 23° ESE
EO 1 Del DPAF 4.5 22:42:33 10° NNE 22:44:59 30° ENE 22:44:59 30° ENE
Cosmos 2112 Rocket 4.0 22:48:24 57° SE 22:49:08 63° ESE 22:54:26 10° NNE
USA 215 4.1 22:46:50 10° NE 22:53:05 49° NNW 22:59:20 10° WSW
Cosmos 158 Rocket 3.6 22:52:56 68° SSE 22:53:22 74° ESE 22:58:15 10° NNE
Cosmos 2278 Rocket 2.1 22:47:59 10° NNW 22:53:42 79° ENE 22:54:59 55° SE
SPOT 5 4.3 22:53:10 24° SW 22:54:56 30° W 22:59:14 10° NW
Spot 4 4.1 22:59:07 51° E 22:59:36 54° ENE 23:04:15 10° N
SL-16 R/B 3.0 23:00:46 34° E 23:00:46 34° E 23:05:31 10° NE
Cosmos 2058 3.1 23:01:10 63° W 23:01:21 64° W 23:05:29 10° N
Cosmos 1408 3.3 23:03:24 48° NNE 23:03:24 48° NNE 23:06:05 10° N
Gblst 52 Del rocket 4.4 22:59:22 10° NW 23:05:16 83° NE 23:07:28 44° ESE
Cosmos 2056 Rocket 4.2 23:01:44 10° N 23:06:57 45° ENE 23:07:58 41° E
Cosmos 2154 Rocket 4.0 23:07:50 46° SSW 23:09:50 78° W 23:16:04 10° N
Nadezhda 3 Rocket 4.0 23:05:53 10° N 23:12:16 86° W 23:13:54 53° S
Cosmos 2341 Rocket 4.0 23:11:47 52° SE 23:12:57 62° E 23:19:04 10° NNE
Cosmos 1076 Rocket 3.9 23:12:54 53° W 23:13:09 54° W 23:17:22 10° N
Cosmos 1680 Rocket 3.8 23:15:57 43° SW 23:17:31 62° WNW 23:22:49 10° NNE
TSX-5 4.4 23:16:56 10° NW 23:19:55 52° WNW 23:19:55 52° WNW
Cosmos 2151 3.2 23:23:52 67° NNE 23:23:52 67° NNE 23:27:38 10° N
USA 267 3.2 23:21:24 46° SE 23:23:38 89° NE 23:30:14 10° NW
SL-8 Rocket 4.0 23:30:59 57° SE 23:31:54 64° E 23:37:59 10° NNE
Cosmos 1825 3.0 23:32:56 48° NNW 23:32:56 48° NNW 23:35:52 10° N
Cosmos 1340 4.4 23:34:23 25° NE 23:34:23 25° NE 23:36:23 10° NNE
BREEZE-M DEB (TANK) 3.9 23:30:20 10° WNW 23:32:45 25° WNW 23:32:45 25° WNW
COSMOS 2455 4.4 23:29:56 10° N 23:35:03 28° NE 23:38:24 17° E
ALOS 2 2.9 23:35:27 59° NE 23:35:27 59° NE 23:39:28 10° N
ATLAS CENTAUR R/B 3.6 23:33:36 10° WNW 23:34:36 14° W 23:34:36 14° W
Cosmos 1933 4.5 23:35:11 10° N 23:38:13 37° NE 23:38:13 37° NE
Cosmos 1151 Rocket 3.7 23:36:23 10° N 23:40:03 46° NE 23:40:03 46° NE
IRIDIUM 103 4.4 23:41:42 64° E 23:41:49 64° E 23:46:59 10° N
Cosmos 44 3.4 23:43:37 61° NNE 23:43:37 61° NNE 23:47:17 10° NNE
Cosmos 2369 Rocket 4.1 23:41:42 10° N 23:45:54 21° NE 23:48:49 15° E
GP-B 3.3 23:44:55 10° N 23:48:50 68° NNE 23:48:50 68° NNE
Cosmos 371 Rocket 3.9 23:45:33 10° N 23:50:15 47° ENE 23:50:25 47° ENE
Terra 4.3 23:49:27 10° W 23:50:24 11° W 23:51:36 10° WNW
